Regional Weather Roundup
Issued by NWS

Home | Current Version | Previous Version | Graphics & Text | Print | Product List | Glossary On
Versions: 1 2 3 4 5 6 7 8 9 10 11 12 13 14 15 16 17 18 19 20 21 22 23 24 25 26 27 28
000
ASUS45 KCYS 260110
RWRWY

WYOMING REGIONAL WEATHER ROUNDUP
NATIONAL WEATHER SERVICE CHEYENNE WY
700 PM MDT MON JUL 25 2016

NOTE:  "FAIR" INDICATES FEW OR NO CLOUDS BELOW 12,000 FEET
WITH NO SIGNIFICANT WEATHER AND/OR OBSTRUCTIONS TO VISIBILITY.

WYZ001-260200-
YELLOWSTONE NATIONAL PARK

CITY           SKY/WX    TMP DP  RH WIND       PRES   REMARKS
LK YELLOWSTONE   N/A     77  21  12 MISG      30.33F
W YELLOWSTONE  NOT AVBL

$$
WYZ002>013-054>058-071-098>099-260200-
NORTHERN WYOMING

CITY           SKY/WX    TMP DP  RH WIND       PRES   REMARKS
JACKSON        SUNNY     84  27  12 SW10      30.19S
CODY           FAIR      88  37  16 N3        30.06S
GREYBULL       FAIR      97  22   7 N7        29.94S HX  90
WORLAND        FAIR      95  24   8 CALM      29.98S
SHERIDAN       FAIR      96  35  11 N3        29.97F HX  91
BUFFALO        FAIR      93  32  11 N8        30.06S
GILLETTE       FAIR      90  34  13 E10G18    30.01F
HULETT         FAIR      88  43  20 SE13G18   30.03S
NEWCASTLE      FAIR      91  36  14 E20       30.03F

$$
WYZ014>020-022>026-101>103-260200-
CENTRAL WYOMING

CITY           SKY/WX    TMP DP  RH WIND       PRES   REMARKS
BIG PINEY      FAIR      86  31  13 W6        30.23S
PINEDALE       FAIR      82  25  12 MISG      30.24S
DUBOIS         FAIR      81  19  10 W14       30.23S
LANDER         FAIR      90  27  10 N8        30.08S
RIVERTON       FAIR      90  17   7 N17G36    30.07S
CASPER         FAIR      91  21   8 NW10      30.07S
DOUGLAS          N/A    N/A N/A N/A MISG      30.05S

$$
WYZ021-027>030-104>119-260200-
SOUTHERN WYOMING

CITY           SKY/WX    TMP DP  RH WIND       PRES   REMARKS
EVANSTON       FAIR      85  22  10 W16G23    30.26S
KEMMERER         N/A    N/A N/A N/A W12G17    30.26S
FORT BRIDGER   FAIR      87  27  11 SW21G31   30.26F
ROCK SPRINGS   FAIR      83  28  13 W17G25    30.24R
DIXON          FAIR      84  30  14 W9        30.23S
RAWLINS        FAIR      86  21   9 NW7       30.21F
SARATOGA       FAIR      82  25  12 SW9       30.25S
LARAMIE        FAIR      83  21  10 NW10      30.25F
CHEYENNE       FAIR      83  53  35 SE17      30.17S
TORRINGTON     FAIR      90  54  29 SE12      30.01S
PINE BLUFFS    FAIR      82  59  44 SE16G23   30.12S

$$




USA.gov is the U.S. government's official web portal to all federal, state and local government web resources and services.